{"data":{"norad_id":67097,"epoch":"2026-09-20T08:35:10.413024Z","epoch_age_seconds":90471,"freshness":"FRESH","line1":"1 67097U 25298Y   26263.35775941  .00002160  00000+0  18871-3 0  9991","line2":"2 67097  69.9998 243.7475 0003563 267.9832  92.0919 14.98333909 42372","mean_motion":14.98333909,"eccentricity":0.0003563,"inclination_deg":69.9998,"raan_deg":243.7475,"arg_perigee_deg":267.9832,"mean_anomaly_deg":92.0919,"bstar":0.00018871,"rev_number":4237,"period_min":96.106748392357,"perigee_km":569.56745329065,"apogee_km":574.52015213066,"semimajor_km":6950.1808027107,"source":"CELESTRAK","updated_at":"2026-09-21T09:00:36.102165Z"}}